Home   Weather   Oranjestad   Past weeks
Flag for Aruba

Past Weather in Oranjestad, Aruba — Yesterday and Last 2 Weeks

Now
79 °F

Passing clouds.


Feels Like: 82 °F
Forecast: 85 / 79 °F
Wind: 20 mph from East

Location: Queen Beatrix Airport - Aruba

Current Time: Mar 20, 2019 at 1:29:28 am

Latest Report: Mar 20, 2019 at 1:00 am


Visibility: N/A

Pressure: 29.92 "Hg

Humidity: 79%

Dew Point: 72 °F

Location of OranjestadLocation

Past Weather in Oranjestad — Graph

°F

Oranjestad Temperature Yesterday

Maximum temperature yesterday: 86 °F (at 12:00 pm)
Minimum temperature yesterday: 79 °F (at 12:00 am)
Average temperature yesterday: 81 °F

High & Low Weather Summary for the Past Weeks

 TemperatureHumidityPressure
High88 °F (Mar 10, 1:00 pm)89% (Mar 5, 3:00 am)30.01 "Hg (Mar 5, 3:00 am)
Low77 °F (Mar 5, 3:00 am)52% (Mar 12, 3:00 pm)29.83 "Hg (Mar 9, 5:00 am)
Average81 °F75%29.91 "Hg
* Reported Mar 5 12:00 am — Mar 20 12:00 am, Oranjestad. Weather by CustomWeather, © 2019

Note: Actual official high and low records may vary slightly from our data, if they occured in-between our weather recording intervals... More about our weather records

Advertising

Oranjestad Weather History for the Previous 24 Hours

Scroll right to see more
 ConditionsComfort  
Time TempWeatherWind HumidityBarometerVisibility
12:00 am
Wed, Mar 20
79 °FPassing clouds.21 mph79%29.92 "HgN/A
11:00 pm
Tue, Mar 19
79 °FPassing clouds.22 mph79%29.92 "HgN/A
10:00 pm79 °FPassing clouds.22 mph79%29.92 "HgN/A
9:00 pm79 °FPassing clouds.23 mph79%29.89 "HgN/A
8:00 pm79 °FPassing clouds.22 mph79%29.86 "HgN/A
7:00 pm81 °FPassing clouds.20 mph79%29.83 "HgN/A
6:00 pm82 °FScattered clouds.18 mph74%29.83 "HgN/A
5:00 pm82 °FPartly sunny.21 mph70%29.83 "HgN/A
4:00 pm84 °FPartly sunny.22 mph70%29.86 "HgN/A
3:00 pm82 °FPartly sunny.23 mph70%29.89 "HgN/A
2:00 pm84 °FPartly sunny.22 mph66%29.89 "HgN/A
1:00 pm86 °FScattered clouds.23 mph62%29.92 "HgN/A
12:00 pm86 °FScattered clouds.26 mph66%29.95 "HgN/A
11:00 am84 °FScattered clouds.29 mph70%29.95 "HgN/A
10:00 am82 °FPassing clouds.24 mph74%29.95 "HgN/A
9:00 am82 °FPassing clouds.25 mph74%29.95 "HgN/A
8:00 am81 °FPassing clouds.21 mph79%29.92 "HgN/A
7:00 am79 °FScattered clouds.18 mph84%29.89 "Hg6 mi
6:00 am79 °FPassing clouds.20 mph84%29.89 "Hg6 mi
5:00 am79 °FPassing clouds.20 mph84%29.86 "Hg6 mi
4:00 am79 °FPassing clouds.20 mph84%29.86 "Hg6 mi
3:00 am79 °FPassing clouds.22 mph84%29.86 "Hg6 mi
1:00 am79 °FPassing clouds.21 mph84%29.89 "Hg6 mi
Weather by CustomWeather, © 2019

See weather overview